Location: Ariel
(45.9570°N, 122.5700°W)
Time: 02:14:47
(UTC-07:00)

A-11 Canister half - Pass Details

Date: 26 August 2019
Orbit: 1514 x 1686 km, 47.2° (Epoch: 21 October)

Event Time Altitude Azimuth Distance (km) Brightness Sun altitude
Rises 02:02:28 0° 290° (WNW) 4,827 11.7 -32.5°
Reaches altitude 10° 02:06:37 10° 275° (W) 3,867 11.0 -32.3°
Enters shadow 02:08:12 14° 267° (W) 3,580 10.7 -32.2°
